AirNav   Everest Fuels
 
 347 users online  

FL55 Sanford Seaplane Base
Sanford, Florida, USA

GOING TO SANFORD?


FAA INFORMATION EFFECTIVE 25 FEBRUARY 2021

Location

FAA Identifier: FL55
Lat/Long: 28-49-22.0000N 081-15-48.0000W
28-49.366667N 081-15.800000W
28.8227778,-81.2633333
(estimated)
Elevation: 6 ft. / 2 m (estimated)
Variation: 05W (2000)
Time zone: UTC -5 (UTC -4 during Daylight Saving Time)
Zip code: 32771

Seaplane Base Operations

Seaplane Base use: Private use. Permission required prior to landing
Activation date: 01/2001
Control tower: no
ARTCC: JACKSONVILLE CENTER
FSS: SAINT PETERSBURG FLIGHT SERVICE STATION
Attendance: UNATNDD
Segmented circle: no

Seaplane Base Communications

WX ASOS at SFB (3 nm SE): 125.975 (407-321-9384)
WX AWOS-3 at DED (15 nm N): 119.575 (386-740-5811)
WX ASOS at ORL (17 nm S): 127.25 (407-658-6753)

Nearby radio navigation aids

VOR radial/distance  VOR name  Freq  Var
ORLr013/17.2ORLANDO VORTAC112.2000E
OMNr195/29.9ORMOND BEACH VORTAC112.6000E

Seaplane Base Services

Runway Information

Runway 9W/27W

Dimensions: 4000 x 1000 ft. / 1219 x 305 m
Surface: water
RUNWAY 9W  RUNWAY 27W
Traffic pattern: leftleft

Seaplane Base Ownership and Management from official FAA records

Ownership: Privately-owned
Owner: LOUIS D. BELL
448 LUFBERRY CIRCLE
WILLIAMSON, GA 30292
Phone 352-516-0000
Manager: LOUIS D. BELL
448 LUFBERRY CIRCLE
WILLIAMSON, GA 30292
Phone 352-516-0000

Additional Remarks

FOR CD CTC ORLANDO APCH AT 407-852-7553.

Instrument Procedures

There are no published instrument procedures at FL55.

Some nearby airports with instrument procedures:

KSFB - Orlando Sanford International Airport (3 nm SE)
KDED - DeLand Municipal Airport-Sidney H Taylor Field (15 nm N)
KORL - Exec Airport (17 nm S)
X04 - Orlando Apopka Airport (18 nm W)
X50 - Massey Ranch Airpark (20 nm NE)
 
Loc | Ops | Rwys | IFR | FBO | Links
Com | Nav | Svcs | Stats | Notes


 
Area around FL55 (Sanford Seaplane Base)
 
Road maps at: MapQuest Bing Google
 
Aerial photo
No photo
 
Sectional chart

 
Airport distance calculator
Flying to Sanford Seaplane Base? Find the distance to fly.

From to FL55

Sunrise and sunset
Times for 09-Mar-2021
 Local
(UTC-5)
 Zulu
(UTC)
Morning civil twilight06:1911:19
Sunrise06:4311:43
Sunset18:2923:29
Evening civil twilight18:5223:52

Current date and time
Zulu (UTC)  09-Mar-2021 08:53:41
Local (UTC-5)  09-Mar-2021 03:53:41
 
METAR
KSFB 
4nm SE 
090753Z 01007KT 10SM CLR 12/08 A3045 RMK AO2 SLP311 T01220083
KDED 
15nm N 
090815Z AUTO 35007KT 10SM CLR 11/08 A3047 RMK AO2 T01080084
KORL 
17nm S 
090753Z AUTO 36005KT 10SM CLR 13/09 A3045 RMK AO2 SLP314 T01280094
TAF
KSFB 
4nm SE 
090536Z 0906/1006 01011KT P6SM SKC FM091600 08010KT P6SM SCT050 FM100000 04003KT P6SM SKC
NOTAMs
Click for the latest NOTAMs
NOTAMs are issued by the DoD/FAA and will open in a separate window not controlled by AirNav.

 

 
 

Would you like to see your business listed on this page?

 If your business provides an interesting product or service to pilots, flight crews, aircraft, or users of the Sanford Seaplane Base, you should consider listing it here.  To start the listing process, click on the button below
 
Add a business
 

Other Pages about Sanford Seaplane Base

Update a link
 
Copyright © AirNav, LLC. All rights reserved. Privacy Policy  Contact